VPS  |  Domény  |  Webhosting


V tuto chvíli si zábavné a zajímavé obrázky prohlíží 403 uživatelů z webu a 18 z mobilu...

 NOVÉ 8:01  1   1/1    Checkmate zz
 NOVÉ 7:47  0   2/2    One-day
 NOVÉ 7:47  0   2/1    Gods-plan-for-mankind-OC
 NOVÉ 7:26  0   1/2    maco2
 NOVÉ 7:26  0   1/3    maco1
 NOVÉ 7:26  0   1/0    incredible stepfather
 NOVÉ 6:32  0   1/4    Problemy lidi s malym perem
 NOVÉ 6:22  0   4/2    Wait75
 NOVÉ 6:22  0   4/2    Slovansky pokrok
 NOVÉ 6:19  0   2/2    Wake-up-and-you-hear-loud-noises-at-y...
 NOVÉ 6:19  0   1/4    Echo loc
 NOVÉ 6:19  0   5/4    Dont-cry-for-him-Argentina
 NOVÉ 0:04  4   4/0    nebulte
 NOVÉ 16.02.2020  4   6/5    vsichni svati
 NOVÉ 16.02.2020  6   0/1    kdo by si vzal o 12 let starsi babu
 NOVÉ 16.02.2020  7   3/7    1939 flashback
 NOVÉ 16.02.2020  7   2/5    potom to tak vyzera
 NOVÉ 16.02.2020  28   18/54    huawei p30
 NOVÉ 16.02.2020  0   16/1    przdna hlava 2020
 NOVÉ 16.02.2020  3   11/2    vzdycky most 2020
 NOVÉ 16.02.2020  10   12/18    twwet 2020
 NOVÉ 16.02.2020  0   2/12    lampicka 2020
 NOVÉ 16.02.2020  4   6/11    coronavirus 2020 2
 NOVÉ 16.02.2020  4   4/17    Doktor 2020
 NOVÉ 16.02.2020  2   7/1    - fujtajbl to sem se lek -
 NOVÉ 16.02.2020  8   11/3    Bitcoin je zabava
 NOVÉ 16.02.2020  1   20/2    napnute kosele VS napnute kosele
 NOVÉ 16.02.2020  3   15/4    Souboj titanu
 NOVÉ 16.02.2020  0   8/2    dnes uz vrazi nejsou to co byvali
 NOVÉ 16.02.2020  4   7/1    gnbn
 NOVÉ 16.02.2020  5   7/1    Frozen Syria
 NOVÉ 16.02.2020  0   12/11    Just hold it
 NOVÉ 16.02.2020  3   10/4    Deepest
 NOVÉ 16.02.2020  22   22/2    Put--in
 NOVÉ 16.02.2020  3   4/9    Lehke sexualni naznaky
 NOVÉ 16.02.2020  9   9/4    Hate-when-it-happens
 NOVÉ 16.02.2020  4   16/1    --Wholesome
 NOVÉ 16.02.2020  3   9/2    Special valentine day
 NOVÉ 16.02.2020  4   27/1    Outside-has-the-big-gay
 NOVÉ 16.02.2020  1   8/7    Mission-Failed
 NOVÉ 16.02.2020  9   13/2    Najdi rozdil mezi muslimy a Kotlebovci
 NOVÉ 16.02.2020  0   14/4    Its-homeopathic-with-essential-oils
 NOVÉ 16.02.2020  1   12/6    I-want-to-die
 NOVÉ 16.02.2020  4   14/0    I-Know-now
 NOVÉ 16.02.2020  5   4/3    fetka in future
 NOVÉ 16.02.2020  34   4/5    Crack the Code
 NOVÉ 15.02.2020  1   4/8    plakaty 11
 NOVÉ 15.02.2020  1   5/8    plakaty 9
 NOVÉ 15.02.2020  0   5/8    plakaty 10
 NOVÉ 15.02.2020  0   3/9    plakaty 8
 NOVÉ 15.02.2020  2   5/8    plakaty 7
 NOVÉ 15.02.2020  0   4/9    plakaty 6
 NOVÉ 15.02.2020  0   5/8    plakaty 5
 NOVÉ 15.02.2020  1   5/7    plakaty 4
 NOVÉ 15.02.2020  0   4/7    plakaty 3
 NOVÉ 15.02.2020  0   6/7    plakaty 2
 NOVÉ 15.02.2020  2   5/7    plakaty 1
 NOVÉ 15.02.2020  1   8/5    insta puss
 NOVÉ 15.02.2020  2   16/1    girl playng with her pussy
 NOVÉ 15.02.2020  4   11/4    rousky jsou nejlepsi darek
 NOVÉ 15.02.2020  19   14/7    - ze zverimexu -
 NOVÉ 15.02.2020  1   8/1    cool pants
 NOVÉ 15.02.2020  2   11/2    FB ADS
 NOVÉ 15.02.2020  3   13/0    - ZEN sutr -
 NOVÉ 15.02.2020  26   3/5    Objektiv Sigma 800 mm 229 km v praxi
 NOVÉ 15.02.2020  14   5/4    Objektiv Sony Reflex 500 mm 6 km
 NOVÉ 15.02.2020  24   5/4    Objektiv MTO 1000a v praxi
 NOVÉ 15.02.2020  4   5/3    ma ji malou
 NOVÉ 15.02.2020  9   11/12    to je uz moc
 NOVÉ 15.02.2020  0   7/13    sajuz nerus ty mna
 NOVÉ 15.02.2020  0   12/2    kudlanka bezbozna
 NOVÉ 15.02.2020  6   15/4    telekineticke schopnosti
 NOVÉ 15.02.2020  5   11/13    IMG-20200215-WA0008
 NOVÉ 15.02.2020  0   20/1    - zimni jezura -
 NOVÉ 15.02.2020  5   11/2    - Hyjeee -
 NOVÉ 15.02.2020  6   6/18    podpis hore sem
 NOVÉ 15.02.2020  3   13/3    koukej mi do voci
 NOVÉ 15.02.2020  2   10/3    a luza maka a plati dane
 NOVÉ 15.02.2020  5   15/37    To zas bude hejtu
 NOVÉ 15.02.2020  2   6/3    - opozdila Valentinka -
 NOVÉ 15.02.2020  11   10/3    - M.HRDY - desetniky -
 NOVÉ 15.02.2020  5   25/3    look mom no hands
 NOVÉ 15.02.2020  3   6/10    prijimam telo pana
 NOVÉ 15.02.2020  3   14/4    dark Harley
 NOVÉ 15.02.2020  2   1/11    catolic pedofiles be like
 NOVÉ 15.02.2020  1   5/5    Jezis Nemanzelsky za mlada
 NOVÉ 15.02.2020  0   16/0    true metal fan
 NOVÉ 15.02.2020  0   6/2    tetovacie studio
 NOVÉ 15.02.2020  6   10/0    kolko pasazierov si menilo spodky
 NOVÉ 15.02.2020  7   16/0    elektrosen4
 NOVÉ 15.02.2020  7   16/0    elektrosen3
 NOVÉ 15.02.2020  2   18/0    elektrosen2
 NOVÉ 15.02.2020  6   25/0    elektrosen1
 NOVÉ 15.02.2020  3   19/5    uklizecka malicka
 NOVÉ 15.02.2020  1   10/4    poletucha
 NOVÉ 15.02.2020  2   12/4    pichni mi vakcinu
 NOVÉ 15.02.2020  7   14/8    bang would not
 NOVÉ 15.02.2020  7   16/6    wet Cleopatra
 NOVÉ 15.02.2020  1   11/4    ma ho tam velkyho
 NOVÉ 15.02.2020  1   20/2    thicc Lara
 NOVÉ 15.02.2020  5   11/3    za Hordu zivot polozis
 NOVÉ 15.02.2020  0   14/6    Paladin or warlock
 NOVÉ 15.02.2020  0   19/4    Frostwolf clan
 NOVÉ 15.02.2020  0   10/7    Sylvanas did nothing wrong 2
 NOVÉ 15.02.2020  3   13/3    vingardium leviosaaah
 NOVÉ 15.02.2020  0   15/3    not so holy priest
 NOVÉ 15.02.2020  4   23/4    Belfka
 NOVÉ 15.02.2020  8   15/4    Warcraft 3 reforged je fuj
 NOVÉ 15.02.2020  5   28/7    Zug zug
 NOVÉ 15.02.2020  8   3/4    gf after 14 years
 NOVÉ 15.02.2020  3   15/3    IMG-20200214-WA0001
 NOVÉ 15.02.2020  5   17/1    Chibicka


Vítejte na Roumingu, serveru plném zábavných a zajímavých obrázků, videí, vtipů a odkazů. Najdete zde materiál pro hodiny a hodiny online zábavy a legrace.
Je zde obrovské množství zábavných a zajímavých obrázků, legračních videí, mnoho vtipů a celá řada odkazů. Kromě toho zde máme diskusní fórum a komu to nestačí, je zde i ostřejší sekce na sesterském webu Roumenovo Maso, která je přístupná až od 18 let.

Pravidla    Kontakt
Tento web používá k poskytování služeb, personalizaci reklam a analýze návštěvnosti soubory cookie. Podmínky pro uchovávání nebo přístup ke cookies je možné nastavit ve vašem prohlížeči. Více...